Time,TemperatureF,DewpointF,PressureIn,WindDirection,WindDirectionDegrees,WindSpeedMPH,WindSpeedGustMPH,Humidity,HourlyPrecipIn,Conditions,Clouds,dailyrainin,SolarRadiationWatts/m^2,SoftwareType,DateUTC
2013-10-31 00:01:00,37.0,33.0,-100.00,SE,137,1.0,2.0,85,0.00,,,0.00,0.000000,,2013-10-31 07:01:00,
2013-10-31 00:42:00,38.0,36.0,-100.00,ENE,77,1.0,2.0,92,0.00,,,0.00,0.000000,,2013-10-31 07:42:00,
2013-10-31 00:52:00,38.0,36.0,-100.00,ENE,77,1.0,2.0,92,0.00,,,0.00,0.000000,,2013-10-31 07:52:00,
2013-10-31 01:02:00,38.0,36.0,-100.00,ENE,77,1.0,2.0,92,0.00,,,0.00,0.000000,,2013-10-31 08:02:00,
2013-10-31 01:42:00,38.0,36.0,-100.00,East,86,1.0,1.0,94,0.00,,,0.00,0.000000,,2013-10-31 08:42:00,
2013-10-31 01:52:00,38.0,36.0,-100.00,East,86,1.0,1.0,94,0.00,,,0.00,0.000000,,2013-10-31 08:52:00,
2013-10-31 02:01:00,38.0,36.0,-100.00,East,86,1.0,1.0,94,0.00,,,0.00,0.000000,,2013-10-31 09:01:00,
2013-10-31 02:43:00,36.0,35.0,-100.00,ESE,115,0.0,2.0,95,0.00,,,0.00,0.000000,,2013-10-31 09:43:00,
2013-10-31 02:53:00,36.0,35.0,-100.00,ESE,115,0.0,2.0,95,0.00,,,0.00,0.000000,,2013-10-31 09:53:00,
2013-10-31 03:03:00,36.0,35.0,-100.00,ESE,115,0.0,2.0,95,0.00,,,0.00,0.000000,,2013-10-31 10:03:00,
2013-10-31 03:42:00,38.0,37.0,-100.00,NE,38,1.0,3.0,95,0.00,,,0.00,0.000000,,2013-10-31 10:42:00,
2013-10-31 03:53:00,38.0,37.0,-100.00,NE,38,1.0,3.0,95,0.00,,,0.00,0.000000,,2013-10-31 10:53:00,
2013-10-31 04:03:00,38.0,37.0,-100.00,NE,38,1.0,3.0,95,0.00,,,0.00,0.000000,,2013-10-31 11:03:00,
2013-10-31 04:42:00,37.0,36.0,-100.00,NNE,20,1.0,3.0,96,0.01,,,0.01,0.000000,,2013-10-31 11:42:00,
2013-10-31 04:52:00,37.0,36.0,-100.00,NNE,20,1.0,3.0,96,0.01,,,0.01,0.000000,,2013-10-31 11:52:00,
2013-10-31 05:01:00,37.0,36.0,-100.00,NNE,20,1.0,3.0,96,0.01,,,0.01,0.000000,,2013-10-31 12:01:00,
2013-10-31 05:42:00,37.0,36.0,-100.00,NW,315,1.0,4.0,96,0.05,,,0.06,0.000000,,2013-10-31 12:42:00,
2013-10-31 05:52:00,37.0,36.0,-100.00,NW,315,1.0,4.0,96,0.05,,,0.06,0.000000,,2013-10-31 12:52:00,
2013-10-31 06:01:00,37.0,36.0,-100.00,NW,315,1.0,4.0,96,0.05,,,0.06,0.000000,,2013-10-31 13:01:00,
2013-10-31 06:42:00,37.0,36.0,-100.00,West,281,1.0,3.0,96,0.04,,,0.10,0.000000,,2013-10-31 13:42:00,
2013-10-31 06:52:00,37.0,36.0,-100.00,West,281,1.0,3.0,96,0.04,,,0.10,0.000000,,2013-10-31 13:52:00,
2013-10-31 07:02:00,37.0,36.0,-100.00,West,281,1.0,3.0,96,0.04,,,0.10,0.000000,,2013-10-31 14:02:00,
2013-10-31 07:42:00,37.0,36.0,-100.00,NNE,29,0.0,2.0,96,0.03,,,0.13,0.000000,,2013-10-31 14:42:00,
2013-10-31 07:52:00,37.0,36.0,-100.00,NNE,29,0.0,2.0,96,0.03,,,0.13,0.000000,,2013-10-31 14:52:00,
2013-10-31 08:01:00,37.0,36.0,-100.00,NNE,29,0.0,2.0,96,0.03,,,0.13,0.000000,,2013-10-31 15:01:00,
2013-10-31 09:43:00,39.0,38.0,-100.00,SSW,201,0.0,1.0,96,-99.99,,,-99.99,25.000000,,2013-10-31 16:43:00,
2013-10-31 09:53:00,39.0,38.0,-100.00,SSW,201,0.0,1.0,96,-99.99,,,-99.99,25.000000,,2013-10-31 16:53:00,
2013-10-31 10:02:00,39.0,38.0,-100.00,SSW,201,0.0,1.0,96,-99.99,,,-99.99,25.000000,,2013-10-31 17:02:00,
2013-10-31 10:43:00,41.0,40.0,-100.00,SSW,211,0.0,2.0,96,0.00,,,-99.99,74.000000,,2013-10-31 17:43:00,
2013-10-31 10:52:00,41.0,40.0,-100.00,SSW,211,0.0,2.0,96,0.00,,,-99.99,74.000000,,2013-10-31 17:52:00,
2013-10-31 11:02:00,41.0,40.0,-100.00,SSW,211,0.0,2.0,96,0.00,,,-99.99,74.000000,,2013-10-31 18:02:00,
2013-10-31 11:42:00,44.0,43.0,-100.00,NNW,345,1.0,3.0,96,0.02,,,-99.99,78.000000,,2013-10-31 18:42:00,
2013-10-31 11:52:00,44.0,43.0,-100.00,NNW,345,1.0,3.0,96,0.02,,,-99.99,78.000000,,2013-10-31 18:52:00,
2013-10-31 12:01:00,44.0,43.0,-100.00,NNW,345,1.0,3.0,96,0.02,,,-99.99,78.000000,,2013-10-31 19:01:00,
2013-10-31 12:42:00,43.0,42.0,-100.00,WNW,302,1.0,3.0,95,0.01,,,-99.99,81.000000,,2013-10-31 19:42:00,
2013-10-31 12:52:00,43.0,42.0,-100.00,WNW,302,1.0,3.0,95,0.01,,,-99.99,81.000000,,2013-10-31 19:52:00,
2013-10-31 13:02:00,43.0,42.0,-100.00,WNW,302,1.0,3.0,95,0.01,,,-99.99,81.000000,,2013-10-31 20:02:00,
2013-10-31 13:42:00,46.0,44.0,-100.00,WNW,290,1.0,3.0,94,0.01,,,-99.99,118.000000,,2013-10-31 20:42:00,
2013-10-31 13:52:00,46.0,44.0,-100.00,WNW,290,1.0,3.0,94,0.01,,,-99.99,118.000000,,2013-10-31 20:52:00,
2013-10-31 14:02:00,46.0,44.0,-100.00,WNW,290,1.0,3.0,94,0.01,,,-99.99,118.000000,,2013-10-31 21:02:00,
2013-10-31 14:44:00,49.0,46.0,-100.00,NW,314,2.0,8.0,88,0.00,,,-99.99,262.000000,,2013-10-31 21:44:00,
2013-10-31 14:54:00,49.0,46.0,-100.00,NW,314,2.0,8.0,88,0.00,,,-99.99,262.000000,,2013-10-31 21:54:00,
2013-10-31 15:03:00,49.0,46.0,-100.00,NW,314,2.0,8.0,88,0.00,,,-99.99,262.000000,,2013-10-31 22:03:00,
2013-10-31 15:43:00,46.0,44.0,-100.00,NNE,23,2.0,8.0,91,0.00,,,-99.99,172.000000,,2013-10-31 22:43:00,
2013-10-31 15:53:00,46.0,44.0,-100.00,NNE,23,2.0,8.0,91,0.00,,,-99.99,172.000000,,2013-10-31 22:53:00,
2013-10-31 16:03:00,46.0,44.0,-100.00,NNE,23,2.0,8.0,91,0.00,,,-99.99,172.000000,,2013-10-31 23:03:00,
2013-10-31 16:43:00,48.0,45.0,-100.00,WNW,286,2.0,7.0,91,0.00,,,-99.99,141.000000,,2013-10-31 23:43:00,
2013-10-31 16:54:00,48.0,45.0,-100.00,WNW,286,2.0,7.0,91,0.00,,,-99.99,141.000000,,2013-10-31 23:54:00,
2013-10-31 17:01:00,48.0,45.0,-100.00,WNW,286,2.0,7.0,91,0.00,,,-99.99,141.000000,,2013-11-01 00:01:00,
2013-10-31 17:42:00,45.0,43.0,-100.00,SW,223,1.0,6.0,93,0.00,,,-99.99,57.000000,,2013-11-01 00:42:00,
2013-10-31 17:52:00,45.0,43.0,-100.00,SW,223,1.0,6.0,93,0.00,,,-99.99,57.000000,,2013-11-01 00:52:00,
2013-10-31 18:01:00,45.0,43.0,-100.00,SW,223,1.0,6.0,93,0.00,,,-99.99,57.000000,,2013-11-01 01:01:00,
2013-10-31 18:42:00,45.0,43.0,-100.00,NW,310,1.0,6.0,94,0.00,,,-99.99,8.000000,,2013-11-01 01:42:00,
2013-10-31 18:52:00,45.0,43.0,-100.00,NW,310,1.0,6.0,94,0.00,,,-99.99,8.000000,,2013-11-01 01:52:00,
2013-10-31 19:02:00,45.0,43.0,-100.00,NW,310,1.0,6.0,94,0.00,,,-99.99,8.000000,,2013-11-01 02:02:00,
2013-10-31 19:42:00,44.0,43.0,-100.00,ENE,63,1.0,8.0,95,0.00,,,-99.99,0.000000,,2013-11-01 02:42:00,
2013-10-31 19:52:00,44.0,43.0,-100.00,ENE,63,1.0,8.0,95,0.00,,,-99.99,0.000000,,2013-11-01 02:52:00,
2013-10-31 20:03:00,44.0,43.0,-100.00,ENE,63,1.0,8.0,95,0.00,,,-99.99,0.000000,,2013-11-01 03:03:00,
2013-10-31 20:45:00,41.0,40.0,-100.00,NNE,25,1.0,4.0,95,0.00,,,-99.99,0.000000,,2013-11-01 03:45:00,
2013-10-31 20:54:00,41.0,40.0,-100.00,NNE,25,1.0,4.0,95,0.00,,,-99.99,0.000000,,2013-11-01 03:54:00,
2013-10-31 21:03:00,41.0,40.0,-100.00,NNE,25,1.0,4.0,95,0.00,,,-99.99,0.000000,,2013-11-01 04:03:00,
2013-10-31 21:43:00,43.0,42.0,-100.00,SSE,153,1.0,4.0,96,0.00,,,-99.99,0.000000,,2013-11-01 04:43:00,
2013-10-31 21:54:00,43.0,42.0,-100.00,SSE,153,1.0,4.0,96,0.00,,,-99.99,0.000000,,2013-11-01 04:54:00,
2013-10-31 22:03:00,43.0,42.0,-100.00,SSE,153,1.0,4.0,96,0.00,,,-99.99,0.000000,,2013-11-01 05:03:00,
2013-10-31 22:42:00,43.0,42.0,-100.00,East,82,1.0,4.0,96,0.00,,,-99.99,0.000000,,2013-11-01 05:42:00,
2013-10-31 22:53:00,43.0,42.0,-100.00,East,82,1.0,4.0,96,0.00,,,-99.99,0.000000,,2013-11-01 05:53:00,
2013-10-31 23:02:00,43.0,42.0,-100.00,East,82,1.0,4.0,96,0.00,,,-99.99,0.000000,,2013-11-01 06:02:00,
2013-10-31 23:42:00,43.0,42.0,-100.00,West,259,1.0,3.0,96,0.00,,,-99.99,0.000000,,2013-11-01 06:42:00,
2013-10-31 23:52:00,43.0,42.0,-100.00,West,259,1.0,3.0,96,0.00,,,-99.99,0.000000,,2013-11-01 06:52:00,